Starlink 31996

operational
NORAD ID: 60100 Int'l Des: 2024-117 Owner: SPXS Country: US Constellation: starlink
LEOCIRCULAR

Über Starlink 31996

Beschreibung wird geladen...

Live-Position

3D-Globus wird geladen...

Nächste Überflüge

Höhenverlauf

Altitude vs Time

uPlot chart will show altitude changes over time

Zweizeiliger Elementsatz

1 60100U 24117K 25350.50430814 .00000509 00000-0 29306-4 0 9990
2 60100 53.1606 63.2808 0001383 102.5141 257.6015 15.30193449 84159
Epoch: 16. Dez. 2025 • Age: 19 hours

Aktueller Status

Höhe 477.9 km
Geschwindigkeit 7.63 km/s
Subsatellitenpunkt -7.84°S, 135.47°W
Startdatum 23. Juni 2024
Alter 1.4 years
Typ internet

Technische Details

Klassifizierung Payload
Masse 730.00 kg
Trockenmasse 700.00 kg
Gesamtmasse 730.00 kg
Länge 0.30 m
Durchmesser 4.10 m
Spannweite 29.00 m
Form Box + pan
Hersteller SPXS
Bus-Typ Starlink V2M
Phasenstatus In Orbit
Besitzer/Staat SPXS/US

Große Konstellationen

Loading constellations...